Flag for Canada Weather past 2 weeks in Barrie, Ontario, Canada

Now
16 °F

Mostly cloudy.


Feels Like: 1 °F
Forecast: -3 / 11 °F
Wind: 14 mph from Northwest

Location: Borden

Current Time: Mar 4, 2015 at 9:59:52 PM

Latest Report: Mar 4, 2015 at 9:00 PM


Visibility: 7 mi

Pressure: 30.05 "Hg

Humidity: 86%

Dew point: 12 °F

Location of BarrieLocation

Historic Weather in Barrie — Graph

°F

Barrie temperature yesterday

Maximum temperature yesterday: 30 °F (at 10:00 PM)
Minimum temperature yesterday: -8 °F (at 4:00 AM)
Average temperature yesterday: 15 °F

Past Weeks' High & Low Weather Summary

 TemperatureHumidityPressure
High30 °F (Mar 3, 10:00 PM)100% (Feb 21, 7:00 PM)30.77 "Hg (Feb 21, 7:00 PM)
Low-20 °F (Feb 27, 6:00 AM)38% (Feb 20, 4:00 PM)29.51 "Hg (Mar 3, 8:56 PM)
Average7 °F71%30.15 "Hg
* Reported Feb 17 8:00 PM — Mar 4 8:55 PM, Barrie, Weather by CustomWeather, © 2015

Note: Actual official high and low records may vary slightly from our data, if they occured in-between our weather recording intervals... More about our weather records

Advertising

Barrie weather history for previous 24 hours

 ConditionsComfort  
Time TempWeatherWind HumidityBarometerVisibility
8:55 PM
Wed, Mar 4
16 °FMostly cloudy.8 mph86%30.01 "Hg8 mi
8:00 PM18 °FMostly cloudy.8 mph73%30.01 "Hg9 mi
7:00 PM18 °FOvercast.6 mph86%29.98 "Hg9 mi
5:00 PM25 °FOvercast.10 mph59%29.92 "Hg9 mi
4:00 PM27 °FMostly cloudy.17 mph54%29.91 "Hg9 mi
3:00 PM25 °FMostly cloudy.14 mph63%29.91 "Hg9 mi
2:00 PM25 °FOvercast.8 mph69%29.91 "Hg9 mi
1:00 PM23 °FLight snow. Overcast.9 mph74%29.90 "Hg5 mi
12:59 PM23 °FLight snow. Overcast.8 mph74%29.86 "Hg5 mi
12:00 PM25 °FOvercast.6 mph74%29.89 "Hg7 mi
11:00 AM25 °FOvercast.9 mph74%29.90 "Hg7 mi
10:00 AM25 °FLight snow. Mostly cloudy.13 mph86%29.87 "Hg5 mi
9:56 AM25 °FLight snow. Mostly cloudy.9 mph86%29.84 "Hg6 mi
9:00 AM28 °FOvercast.12 mph74%29.84 "Hg9 mi
8:00 AM27 °FOvercast.5 mph80%29.83 "Hg9 mi
7:00 AM27 °FMostly cloudy.2 mph80%29.80 "Hg9 mi
6:00 AM27 °FOvercast.6 mph80%29.79 "Hg9 mi
5:00 AM27 °FOvercast.9 mph74%29.76 "Hg9 mi
4:00 AM28 °FOvercast.17 mph74%29.74 "Hg9 mi
3:00 AM30 °FOvercast.9 mph75%29.72 "Hg9 mi
2:00 AM30 °FOvercast.7 mph80%29.70 "Hg9 mi
1:00 AM30 °FOvercast.10 mph80%29.67 "Hg9 mi
12:00 AM30 °FOvercast.12 mph80%29.64 "Hg9 mi
11:00 PM
Tue, Mar 3
30 °FOvercast.10 mph86%29.60 "Hg9 mi
10:00 PM30 °FLight snow. Overcast.12 mph86%29.58 "Hg9 mi
9:00 PM25 °FOvercast.5 mph100%29.55 "Hg8 mi
Weather by CustomWeather, © 2015

See weather overviewHow to use our weather pages